PROMETHEUS 2-1 (41854 NORAD) Tracking and Keplerian Element Data

This shows tracking and keplerian element data for the satellite.

Feedback or suggestion? Click here.




ElementValue
Catalog41854
NamePROMETHEUS 2-1
Epoch Orbit10936
Epoch Day317.20838244
Epoch Year2018
RAAN47.0484
Inclination97.923
Eccentricity0.001114
Argument of Perigee38.2052
Mean Anonmoly321.9957
Mean Motion14.96702522
Decay Rate9.91E-06
L11 41854U 16067G 18317.20838244 .00000991 00000-0 92048-4 0 9999
L22 41854 97.9230 47.0484 0011140 38.2052 321.9957 14.96702522109361

Live tracking and technical data element details for PROMETHEUS 2-1 (NORAD 41854). PROMETHEUS 2-1 can be tracked NOW for your location showing map with azimuth and elevation plus other details from your city location.

Track the satellite on the map from your city or location and see movement details for azimuth, elevation, latitude, longitude, range, height, and movement on the map or in text.







IsCatalogInMostPopularTable: catalog: 41854, numindb: 113
Update: records affected: 1



GetName: 41854 PROMETHEUS 2-1

Hit Count: updated at: Wed, 14 Nov 2018 11:59:12 GMT